• In Latvia
  • List of Countries
  • For 7 days
  • Water Temperature
  • Satellite Maps
  • Weather Map
  • Weather Widgets
  • user-avatar
    Login

    Hourly Weather Bakhmut (Artemivsk)

    Today, 19 November, Sunday

    Time Temperature Precipitation Wind Pressure Humidity
    00:00 +3°C° 0.1 mm 2 mps 752 mmHg 79%
    01:00 +3°C° 0 mm 2 mps 751 mmHg 81%
    02:00 +3°C° 0 mm 2 mps 751 mmHg 83%
    03:00 +1°C° 0 mm 3 mps 750 mmHg 87%
    04:00 +2°C° 0.1 mm 3 mps 750 mmHg 88%
    05:00 +2°C° 0.1 mm 3 mps 749 mmHg 89%
    06:00 +4°C° 0.1 mm 2 mps 749 mmHg 90%
    07:00 +3°C° 0.1 mm 3 mps 749 mmHg 89%
    08:00 +3°C° 0.1 mm 3 mps 748 mmHg 89%
    09:00 +4°C° 0.1 mm 3 mps 748 mmHg 88%
    10:00 +5°C° 0 mm 3 mps 748 mmHg 83%
    11:00 +7°C° 0 mm 3 mps 748 mmHg 77%
    12:00 +9°C° 0 mm 3 mps 748 mmHg 72%
    13:00 +9°C° 0 mm 3 mps 747 mmHg 70%
    14:00 +10°C° 0 mm 3 mps 747 mmHg 69%
    15:00 +10°C° 0 mm 3 mps 747 mmHg 67%
    16:00 +10°C° 0 mm 2 mps 747 mmHg 71%
    17:00 +9°C° 0 mm 2 mps 746 mmHg 75%
    18:00 +8°C° 0 mm 2 mps 746 mmHg 79%
    19:00 +8°C° 0.1 mm 2 mps 746 mmHg 81%
    20:00 +8°C° 0.1 mm 2 mps 746 mmHg 82%
    21:00 +8°C° 0.1 mm 2 mps 746 mmHg 83%
    22:00 +8°C° 0.4 mm 2 mps 746 mmHg 84%
    23:00 +9°C° 0.4 mm 1 mps 746 mmHg 85%

    Tomorrow, 20 November, Monday

    Time Temperature Precipitation Wind Pressure Humidity
    00:00 +9°C° 0.4 mm 1 mps 746 mmHg 86%
    01:00 +8°C° 0 mm 1 mps 746 mmHg 87%
    02:00 +8°C° 0 mm 1 mps 746 mmHg 87%
    03:00 +8°C° 0 mm 1 mps 746 mmHg 88%
    04:00 +8°C° 0 mm 1 mps 745 mmHg 88%
    05:00 +7°C° 0 mm 1 mps 745 mmHg 89%
    06:00 +7°C° 0 mm 1 mps 745 mmHg 89%
    07:00 +6°C° 0 mm 2 mps 745 mmHg 89%
    08:00 +6°C° 0 mm 2 mps 745 mmHg 88%
    09:00 +6°C° 0 mm 2 mps 744 mmHg 88%
    10:00 +7°C° 0 mm 2 mps 744 mmHg 82%
    11:00 +8°C° 0 mm 3 mps 744 mmHg 76%
    12:00 +9°C° 0 mm 3 mps 743 mmHg 70%
    13:00 +10°C° 0 mm 3 mps 743 mmHg 69%
    14:00 +11°C° 0 mm 3 mps 743 mmHg 69%
    15:00 +12°C° 0 mm 4 mps 742 mmHg 69%
    16:00 +11°C° 0.1 mm 4 mps 742 mmHg 74%
    17:00 +11°C° 0.1 mm 4 mps 742 mmHg 80%
    18:00 +11°C° 0.1 mm 4 mps 742 mmHg 86%
    19:00 +10°C° 0.4 mm 4 mps 741 mmHg 85%
    20:00 +10°C° 0.4 mm 4 mps 741 mmHg 85%
    21:00 +9°C° 0.4 mm 5 mps 741 mmHg 84%
    22:00 +9°C° 0.1 mm 5 mps 741 mmHg 84%
    23:00 +8°C° 0.1 mm 5 mps 741 mmHg 85%

    Day after tomorrow, 21 November, Tuesday

    Time Temperature Precipitation Wind Pressure Humidity
    00:00 +8°C° 0.1 mm 5 mps 741 mmHg 85%
    01:00 +7°C° 0.1 mm 5 mps 741 mmHg 85%
    02:00 +6°C° 0.1 mm 5 mps 741 mmHg 85%
    03:00 +5°C° 0.1 mm 5 mps 741 mmHg 85%
    04:00 +3°C° 0 mm 5 mps 741 mmHg 84%
    05:00 +3°C° 0 mm 5 mps 742 mmHg 82%
    06:00 +2°C° 0 mm 5 mps 742 mmHg 81%
    07:00 +2°C° 0 mm 5 mps 742 mmHg 80%
    08:00 +1°C° 0 mm 5 mps 743 mmHg 79%
    09:00 +1°C° 0 mm 5 mps 743 mmHg 79%
    10:00 +2°C° 0 mm 5 mps 744 mmHg 76%
    11:00 +2°C° 0 mm 5 mps 744 mmHg 73%
    12:00 +2°C° 0 mm 5 mps 744 mmHg 70%
    13:00 +2°C° 0 mm 5 mps 744 mmHg 67%
    14:00 +2°C° 0 mm 5 mps 745 mmHg 65%
    15:00 +2°C° 0 mm 5 mps 745 mmHg 62%
    16:00 +3°C° 0 mm 4 mps 745 mmHg 64%
    17:00 +3°C° 0 mm 4 mps 746 mmHg 67%
    18:00 +2°C° 0 mm 3 mps 746 mmHg 69%
    19:00 +2°C° 0 mm 3 mps 746 mmHg 71%
    20:00 +1°C° 0 mm 3 mps 747 mmHg 74%
    21:00 +1°C° 0 mm 3 mps 747 mmHg 76%
    22:00 +1°C° 0 mm 3 mps 747 mmHg 76%
    23:00 +1°C° 0 mm 2 mps 747 mmHg 75%

    22 November, Wednesday

    Time Temperature Precipitation Wind Pressure Humidity
    00:00 +1°C° 0 mm 2 mps 748 mmHg 75%
    01:00 +1°C° 0 mm 2 mps 748 mmHg 75%
    02:00 -1°C° 0 mm 2 mps 748 mmHg 75%
    03:00 -1°C° 0 mm 2 mps 748 mmHg 76%
    04:00 -1°C° 0 mm 2 mps 748 mmHg 76%
    05:00 -1°C° 0 mm 2 mps 749 mmHg 77%
    06:00 -2°C° 0 mm 2 mps 749 mmHg 78%
    07:00 +1°C° 0 mm 1 mps 749 mmHg 75%
    08:00 +1°C° 0 mm 1 mps 750 mmHg 73%
    09:00 +1°C° 0 mm 1 mps 750 mmHg 71%
    10:00 +2°C° 0 mm 1 mps 750 mmHg 66%
    11:00 +3°C° 0 mm 1 mps 750 mmHg 61%
    12:00 +4°C° 0 mm 1 mps 751 mmHg 56%
    13:00 +4°C° 0 mm 1 mps 751 mmHg 55%
    14:00 +4°C° 0 mm 1 mps 751 mmHg 54%
    15:00 +4°C° 0 mm 1 mps 751 mmHg 53%
    16:00 +4°C° 0 mm 1 mps 751 mmHg 57%
    17:00 +3°C° 0 mm 1 mps 752 mmHg 60%
    18:00 +2°C° 0 mm 1 mps 752 mmHg 64%
    19:00 +1°C° 0 mm 2 mps 752 mmHg 66%
    20:00 -1°C° 0 mm 2 mps 753 mmHg 69%
    21:00 -1°C° 0 mm 2 mps 753 mmHg 72%
    22:00 -1°C° 0 mm 2 mps 753 mmHg 74%
    23:00 -1°C° 0 mm 2 mps 754 mmHg 77%

    23 November, Thursday

    Time Temperature Precipitation Wind Pressure Humidity
    00:00 -2°C° 0 mm 2 mps 754 mmHg 80%
    01:00 0°C° 0 mm 1 mps 754 mmHg 81%
    02:00 0°C° 0 mm 1 mps 755 mmHg 83%
    03:00 0°C° 0 mm 1 mps 755 mmHg 84%
    04:00 0°C° 0 mm 1 mps 755 mmHg 85%
    05:00 0°C° 0 mm 1 mps 756 mmHg 85%
    06:00 -1°C° 0 mm 0 mps 756 mmHg 86%
    07:00 -1°C° 0 mm 0 mps 757 mmHg 84%
    08:00 -1°C° 0 mm 0 mps 757 mmHg 82%
    09:00 -1°C° 0 mm 0 mps 758 mmHg 80%
    10:00 0°C° 0 mm 0 mps 758 mmHg 74%
    11:00 +1°C° 0 mm 0 mps 758 mmHg 67%
    12:00 +2°C° 0 mm 0 mps 759 mmHg 61%
    13:00 +4°C° 0 mm 1 mps 759 mmHg 59%
    14:00 +4°C° 0 mm 1 mps 759 mmHg 56%
    15:00 +4°C° 0 mm 1 mps 759 mmHg 54%
    16:00 +3°C° 0 mm 1 mps 759 mmHg 58%
    17:00 +2°C° 0 mm 1 mps 759 mmHg 62%
    18:00 +1°C° 0 mm 1 mps 760 mmHg 66%
    19:00 +1°C° 0 mm 1 mps 760 mmHg 67%
    20:00 +1°C° 0 mm 1 mps 760 mmHg 68%
    21:00 +1°C° 0 mm 1 mps 760 mmHg 68%
    22:00 -1°C° 0 mm 2 mps 760 mmHg 69%
    23:00 -1°C° 0 mm 2 mps 761 mmHg 69%

    24 November, Friday

    Time Temperature Precipitation Wind Pressure Humidity
    00:00 -1°C° 0 mm 2 mps 761 mmHg 70%
    01:00 -1°C° 0 mm 2 mps 761 mmHg 70%
    02:00 -1°C° 0 mm 2 mps 761 mmHg 69%
    03:00 -1°C° 0 mm 2 mps 761 mmHg 69%
    04:00 -1°C° 0 mm 3 mps 761 mmHg 68%
    05:00 -1°C° 0 mm 3 mps 761 mmHg 66%
    06:00 -1°C° 0 mm 3 mps 761 mmHg 64%
    07:00 -1°C° 0 mm 3 mps 761 mmHg 64%
    08:00 0°C° 0 mm 3 mps 761 mmHg 63%
    09:00 -1°C° 0 mm 4 mps 761 mmHg 62%
    10:00 0°C° 0 mm 4 mps 761 mmHg 61%
    11:00 +1°C° 0 mm 4 mps 761 mmHg 61%
    12:00 +1°C° 0 mm 5 mps 761 mmHg 61%
    13:00 +3°C° 0 mm 4 mps 761 mmHg 63%
    14:00 +3°C° 0 mm 4 mps 760 mmHg 66%
    15:00 +3°C° 0 mm 4 mps 760 mmHg 68%
    16:00 +3°C° 0 mm 4 mps 760 mmHg 71%
    17:00 +3°C° 0 mm 4 mps 760 mmHg 74%
    18:00 +1°C° 0 mm 4 mps 760 mmHg 78%
    19:00 +3°C° 0 mm 4 mps 760 mmHg 79%
    20:00 +3°C° 0 mm 4 mps 760 mmHg 81%
    21:00 +3°C° 0 mm 4 mps 760 mmHg 83%
    22:00 +3°C° 0 mm 4 mps 760 mmHg 84%
    23:00 +3°C° 0 mm 4 mps 760 mmHg 85%
    Show more